Theta_e
328 328 328 327 327 326 326 325 325 324 323 321 320 318 317 317 316 315 315 314 313 312 312 311 311 311 311 312 312 312 313 313 318 317 317 318 318 320 322 327 329 329 329
327 327 327 326 326 326 325 324 322 321 320 319 317 317 316 315 314 313 312 311 310 309 309 310 311 312 312 313 313 313 314 314 314 317 314 315 316 316 317 318 319 323 324
326 326 326 325 325 324 323 321 320 318 317 316 316 315 313 312 311 309 308 308 308 308 309 310 310 310 310 310 309 309 310 311 311 312 313 314 315 314 314 314 318 321 320
325 325 325 323 322 320 319 318 317 316 315 314 313 311 310 308 307 307 307 306 305 307 308 308 308 308 308 308 307 307 308 308 309 310 310 311 312 313 313 315 315 315 317
323 323 321 319 318 317 316 315 314 312 311 310 309 307 307 307 306 303 304 303 304 305 306 307 307 307 306 305 305 305 305 304 305 307 308 309 310 310 311 311 310 312 314
319 318 316 315 314 313 312 311 309 309 308 307 307 307 307 308 304 303 301 300 302 304 305 306 305 305 305 304 303 302 302 303 303 303 304 306 308 308 308 308 309 307 310
316 314 313 311 310 308 307 306 306 306 306 306 306 307 306 305 304 301 299 299 302 304 304 303 303 304 302 303 302 301 301 301 301 301 302 303 304 304 305 304 304 306 307
311 309 308 306 305 305 304 305 305 305 305 306 306 305 305 304 302 301 299 300 303 304 303 303 302 301 301 300 300 300 301 301 300 301 301 302 302 302 303 302 301 302 303
305 304 304 303 303 303 304 304 304 304 304 304 304 304 304 303 302 300 298 300 302 302 302 302 302 302 302 300 299 299 299 299 300 300 300 299 299 299 300 300 300 301 302
303 302 302 302 302 302 302 302 302 301 302 303 303 303 303 302 301 299 297 298 299 299 300 301 301 301 301 299 298 297 298 299 299 299 299 299 299 299 299 300 301 301 302
300 301 301 301 301 301 300 299 299 300 301 301 301 302 302 301 300 298 297 297 298 298 299 301 302 303 301 299 299 296 296 297 296 297 298 298 298 299 299 300 301 301 302
299 300 300 299 299 299 298 299 299 300 300 300 299 299 300 300 299 298 297 297 296 297 299 300 301 301 300 301 301 301 300 298 297 297 298 299 300 300 300 300 301 302 301
298 298 298 297 297 298 298 298 299 299 298 298 297 297 298 299 298 297 298 295 296 297 299 300 300 301 302 302 302 301 301 299 298 298 299 300 300 300 300 299 300 301 301
296 296 296 296 294 297 297 297 297 297 296 295 295 295 295 295 294 295 293 294 295 298 299 299 301 301 300 300 300 300 301 301 300 299 299 299 299 300 300 300 300 301 301
294 295 295 295 294 294 296 295 295 295 292 292 293 292 292 292 292 289 289 291 292 294 293 297 299 298 298 298 298 298 299 300 301 301 299 299 298 299 299 299 299 300 301
293 294 294 294 293 293 293 295 295 293 291 291 290 289 290 290 289 289 290 292 296 298 294 297 296 296 296 296 296 297 297 299 299 302 302 300 299 299 299 299 299 300 300
292 292 293 293 293 294 294 295 295 294 294 292 291 290 290 289 289 289 290 295 299 299 296 294 294 294 294 294 294 295 296 297 298 299 300 302 300 299 299 299 300 301 301
292 292 292 293 293 293 294 294 294 294 294 293 293 291 290 289 290 290 291 297 300 299 293 292 292 292 292 293 293 294 295 295 297 297 298 301 302 301 301 302 302 303 304
292 292 292 292 293 292 293 292 292 292 293 292 292 291 288 290 291 290 289 292 295 296 293 291 290 291 292 292 293 294 294 295 294 295 297 298 302 303 304 305 305 306 306
291 291 291 293 293 293 292 292 292 291 291 291 291 290 288 289 290 289 287 288 289 291 291 290 290 291 293 294 293 293 293 293 292 293 293 295 299 305 306 308 309 309 310
292 295 293 294 293 292 292 291 290 290 290 290 290 290 288 290 289 289 288 287 287 288 289 289 290 291 293 292 292 292 291 290 290 290 291 294 304 308 311 312 312 312 312
294 294 294 293 293 292 291 291 290 290 290 289 289 290 289 290 290 289 289 288 288 287 287 288 289 290 290 290 291 290 288 288 288 288 289 294 302 311 313 314 313 312 311
293 293 293 292 291 291 291 291 290 289 289 289 289 289 289 289 289 289 289 289 290 288 288 287 287 288 289 290 290 288 286 286 286 287 288 293 303 312 314 313 312 311 310
293 292 292 291 290 291 290 290 289 288 288 288 288 288 288 288 288 288 288 288 289 290 290 288 288 288 288 290 289 287 286 287 287 290 293 297 303 312 312 311 310 310 308
292 292 291 291 290 290 290 289 288 288 288 288 288 287 287 287 287 287 287 288 289 290 291 290 289 288 288 290 287 287 289 293 295 297 303 306 312 315 312 309 308 307 307
291 291 290 290 289 289 288 288 287 287 286 287 287 286 287 286 286 286 286 288 289 290 291 291 291 289 288 287 286 285 288 293 298 300 301 305 308 313 311 309 307 308 307
Wind_Speed
19 16 15 13 10 8 7 5 4 5 7 10 12 14 17 19 20 20 21 24 25 26 25 26 26 25 26 26 25 25 26 27 17 25 28 27 29 27 23 16 19 23 23
17 15 12 10 8 6 5 4 4 6 8 11 14 17 19 22 22 23 26 26 27 27 25 25 25 23 22 22 22 23 24 25 25 20 27 27 28 30 30 28 27 26 25
15 13 10 7 6 5 4 5 7 9 11 14 16 18 21 24 25 25 26 26 22 24 24 22 21 20 20 18 18 19 20 23 25 23 24 25 26 26 27 27 24 23 26
11 10 8 6 6 5 6 7 9 12 14 17 19 21 23 25 25 23 17 20 23 22 20 20 19 19 17 16 21 21 20 20 21 22 20 21 22 24 25 23 22 25 24
9 8 6 5 4 6 9 11 13 16 17 20 22 22 21 20 15 13 17 21 19 20 19 19 18 18 21 21 17 19 20 20 20 21 21 20 17 19 19 19 20 24 25
7 7 5 6 8 10 12 14 16 19 19 20 20 19 18 15 16 18 21 18 18 18 20 20 20 20 17 21 21 20 19 21 21 21 22 20 20 18 19 22 20 16 9
6 6 7 9 11 13 16 17 18 19 19 19 18 16 14 13 15 18 20 18 18 18 19 19 20 20 22 21 21 23 22 22 24 25 24 22 22 21 18 19 22 22 18
8 9 11 13 15 16 17 17 18 18 18 17 16 14 14 13 14 18 20 18 17 17 18 19 19 21 21 21 23 25 25 26 25 24 23 23 20 20 18 21 23 21 19
12 12 13 14 16 16 17 17 17 17 17 16 14 14 14 12 15 14 19 17 16 18 18 18 17 19 20 24 23 25 28 29 27 26 25 26 28 28 27 24 19 15 12
13 13 14 14 14 15 15 15 15 15 15 15 15 14 13 13 11 15 20 15 18 20 19 18 20 21 21 27 30 25 25 28 25 26 25 25 24 25 25 23 21 16 14
13 13 13 13 14 13 14 15 14 15 15 15 15 14 12 9 12 16 17 16 16 21 21 21 22 25 31 37 31 30 28 29 30 26 25 23 22 23 22 23 25 22 18
13 12 13 13 14 13 13 14 13 13 14 13 14 14 13 13 13 15 17 17 17 19 22 23 26 35 38 31 31 29 26 25 25 22 21 21 19 18 18 19 20 24 24
11 11 11 12 11 12 12 12 13 12 12 13 13 15 16 16 16 16 15 21 20 20 21 25 30 33 32 30 28 31 27 25 21 19 19 19 19 18 16 15 18 16 19
9 10 11 11 13 11 12 12 13 12 14 14 14 15 17 17 17 17 22 23 21 19 21 25 26 28 25 24 25 25 23 23 24 22 22 22 20 17 14 15 15 13 15
11 11 12 11 12 12 13 13 12 12 13 13 13 15 18 19 19 28 26 24 23 23 25 22 23 24 24 26 28 27 27 25 25 25 24 21 20 18 19 20 19 15 13
11 12 12 12 12 12 13 14 11 14 14 11 13 13 18 18 28 26 26 27 22 13 14 17 20 21 23 26 28 29 28 26 28 25 24 21 18 16 17 16 18 16 14
11 13 13 12 13 14 14 16 16 16 13 14 15 15 19 25 25 25 28 21 16 9 8 18 19 22 24 26 28 29 30 30 29 26 25 19 17 17 16 15 14 15 15
12 12 13 13 13 15 15 16 16 17 17 17 14 20 23 23 21 23 24 18 10 8 17 20 22 24 25 27 30 31 33 33 30 29 25 23 15 15 13 14 14 14 15
11 12 13 12 12 13 14 15 15 15 17 16 17 19 28 24 19 22 22 19 18 17 20 22 25 25 27 29 31 33 32 31 32 28 25 22 16 12 11 12 13 16 17
10 10 12 11 12 13 13 14 15 15 16 17 17 18 26 23 22 22 24 23 20 19 21 25 27 26 27 28 32 33 34 32 33 31 30 24 21 8 9 11 13 13 14
9 9 8 10 10 11 11 12 13 14 15 17 17 17 25 18 19 21 22 23 23 22 24 26 27 27 27 31 33 34 34 33 31 30 33 29 17 3 8 11 3 8 13
9 10 10 11 11 11 11 11 13 14 15 17 17 19 21 20 20 20 19 22 21 25 24 25 25 25 29 31 33 34 36 35 35 35 31 29 21 16 6 10 11 13 14
9 10 10 10 11 9 11 12 13 15 16 17 18 19 21 21 22 22 24 25 22 23 24 26 25 28 30 31 31 35 35 36 39 36 31 25 18 12 7 10 8 8 11
8 9 10 10 10 11 13 13 14 15 16 17 18 19 20 21 22 23 25 25 25 24 22 24 24 28 31 31 33 40 38 40 38 36 29 23 22 3 4 6 6 8 10
9 9 10 10 11 12 12 13 14 15 16 17 18 19 20 21 22 23 26 26 26 25 25 24 26 30 30 31 37 39 39 40 39 35 31 31 17 7 5 6 7 8 9
9 9 10 10 11 12 12 13 14 15 16 17 18 19 20 21 23 23 27 27 27 26 26 26 27 31 29 34 38 41 39 39 39 37 30 28 29 17 9 9 8 8 9
Wind_Direction
150 145 144 138 134 125 106 76 40 354 333 322 317 314 313 311 314 313 307 303 305 309 306 302 302 302 297 295 295 296 297 298 299 301 302 303 310 317 309 283 259 270 274
147 146 141 133 122 97 76 43 358 331 321 314 311 309 308 308 311 309 306 305 306 307 308 309 305 306 313 312 312 315 306 303 297 294 291 291 288 291 294 292 286 278 275
149 141 129 112 93 64 36 3 332 323 317 312 309 309 309 309 310 308 306 307 312 312 309 311 320 320 314 312 315 312 306 304 304 307 308 306 306 302 300 297 288 273 269
144 120 99 73 53 26 353 332 324 317 316 314 312 312 311 311 311 309 314 317 313 308 310 313 309 306 311 315 308 302 301 305 299 294 289 289 294 299 304 313 299 281 271
116 97 78 53 18 350 332 325 321 318 317 314 313 312 312 315 319 337 325 316 311 310 309 307 306 311 312 308 315 307 307 302 304 303 296 292 291 295 296 309 314 314 317
86 71 39 8 347 335 324 321 318 315 316 315 313 314 316 318 316 327 326 316 309 306 308 311 312 311 315 316 311 309 302 296 292 288 289 295 298 300 293 297 308 311 301
59 38 6 344 334 330 323 320 320 319 318 314 315 316 319 318 307 320 325 320 308 310 310 311 311 312 319 316 318 308 301 295 288 281 277 274 280 284 294 294 289 288 282
26 6 350 341 332 328 323 323 323 320 316 315 314 316 318 321 319 324 326 321 312 311 315 314 314 312 312 313 311 305 301 296 292 287 283 288 282 285 278 280 290 298 298
10 355 345 339 333 330 327 327 323 320 316 314 312 315 316 323 314 325 334 325 323 321 319 318 316 313 313 310 309 302 297 293 293 291 283 279 278 279 275 276 273 271 278
358 348 345 340 333 328 326 324 322 317 311 316 316 317 319 316 321 333 334 330 328 323 321 319 315 310 309 312 311 301 292 292 297 295 288 283 281 277 275 264 256 248 252
354 350 343 339 335 331 330 326 319 315 318 318 321 319 316 331 322 327 335 334 324 319 317 318 316 314 314 314 315 303 288 294 290 290 289 284 277 270 264 257 249 238 242
352 347 345 343 339 332 325 320 321 320 321 326 328 327 324 324 326 329 325 329 318 314 311 311 310 311 319 321 314 317 313 305 293 283 280 282 277 271 268 263 257 241 246
353 349 345 340 336 330 330 331 327 332 335 331 333 330 328 331 333 332 338 335 326 313 307 307 314 322 326 321 317 316 316 304 283 275 275 272 277 271 265 267 264 256 247
2 359 355 353 349 347 342 343 338 342 343 336 336 334 330 332 334 336 330 325 325 323 321 317 318 323 324 324 327 328 322 303 283 274 273 272 273 284 272 263 255 249 246
7 4 2 357 357 352 353 345 347 348 343 336 346 341 337 331 331 325 323 317 313 308 313 318 323 330 331 336 336 332 328 320 315 283 272 266 263 261 260 262 259 255 250
5 1 1 357 358 358 350 341 347 358 354 342 347 346 337 328 326 333 330 322 316 318 312 328 329 332 332 332 330 328 328 324 319 312 300 265 254 251 249 250 247 238 240
12 4 358 360 357 356 354 355 350 348 351 2 354 350 340 337 343 343 337 329 317 318 350 343 335 333 330 329 329 328 326 324 320 319 311 290 251 248 245 246 243 236 235
10 9 4 2 359 356 354 355 355 351 349 354 358 354 351 345 350 350 349 348 359 351 359 344 335 331 330 329 328 329 327 327 328 322 318 316 256 243 246 239 239 235 235
9 8 4 359 0 359 1 1 0 353 353 356 352 357 356 358 5 0 6 0 347 346 344 340 337 331 328 328 330 329 330 329 327 325 324 319 307 241 248 250 247 243 239
7 4 9 1 359 0 1 2 360 358 358 357 356 359 357 358 2 4 5 1 353 345 342 340 337 332 331 335 334 334 334 336 334 334 330 327 328 247 249 257 249 252 238
352 355 3 9 9 6 1 4 3 360 359 356 354 1 1 352 358 357 358 355 354 347 341 340 338 337 341 339 338 338 337 335 336 335 333 339 349 266 273 283 60 67 103
360 6 10 15 6 7 3 13 10 6 3 1 358 360 6 2 1 356 355 350 350 352 345 343 342 343 343 341 341 341 337 335 335 333 331 336 336 315 13 72 89 84 88
13 11 16 21 6 6 12 17 14 10 5 3 3 4 4 1 1 0 357 352 352 347 351 351 348 345 345 344 344 343 339 335 332 331 324 328 335 334 43 72 79 85 97
16 18 17 12 17 9 17 16 13 11 8 6 6 7 2 1 1 359 357 353 350 351 352 355 352 350 348 347 346 348 350 351 351 347 347 344 333 250 83 80 89 100 105
19 21 20 19 8 15 14 16 15 10 7 8 7 5 2 2 2 359 356 353 355 354 354 357 356 355 354 353 348 355 359 6 9 9 11 8 355 87 91 100 109 109 113
29 28 28 20 18 14 17 16 13 11 6 6 5 3 2 4 360 357 354 351 357 356 356 358 358 357 357 355 353 360 6 12 15 19 20 22 17 34 67 95 104 113 121